DECAYED

STARLINK-1623, 46129 (Decayed)

Orbit data source: Space-Track

STARLINK-1623, 46129 was a payload satellite owned by SpaceX/Seattle (US) in LEO that was launched on Tue, 18 Aug 2020 UTC via an FALCON 9 launch vehicle from the Air Force Eastern Test Range (AFETR). Payload-class satellites include a variety of spacecraft equipped with specific instruments for various scientific and technological missions. These include communications satellites like Starlink; space stations such as the ISS; scientific satellites like the Hubble; Earth observation satellites from companies like Planet Labs, Umbra, and HawkEye 360; GPS; miniature CubeSats for education and research; and military/defense satellites.

Not visible in the next 10 days
Identifier
46129, 2020-057N
Orbit
Decayed
Country
Flag of USUS
Related business
Manufacturer
SpaceX/Seattle
Mission
Decayed Commercial Communications
Bus & Motor
STARLINK, Unknown motor
Mass
260 kg wet, ~248 kg dry
Launch date (UTC)
2020-08-18 (6 years ago)
Launch vehicle
FALCON 9
Launch site
Air Force Eastern Test Range (AFETR)
Object type
Payload
Rocket body
Debris
Shape & HBR
Box + 1 Pan, 10.1 m
Radar Cross Section
13.562 m², Large (>1 m²)

Expand to show TLE details & history
Last TLE update: 3 days ago

TLE from 3 days ago
0 STARLINK-1623
1 46129U 20057N   26234.04467711  .12899124  12521-4  29275-3 0  9992
2 46129  53.0137 151.0676 0006200 263.2231  96.8112 16.46115981332991
Epoch: 2026-08-22T01:04Z
TLE epoch observation values (Epoch: 2026-08-22T01:04:20.102Z)
Latitude
-0.00003°
Longitude
164.62309°
Altitude
150.994 km
Speed
7.817 km/s
True Right ascension
10h 04m 16s
True Declination
0° 00' 00"
Sunlit
Object was in daylight at epoch
Visualization orbit readout
Latitude
Unknown
Longitude
Unknown
Altitude
Unknown
Speed
Unknown
Apparent Right ascension
Unknown
Apparent Declination
Unknown
Sunlit
N/A
Visualization observer readout
Local Sidereal Time
18:19:41
Azimuth
Unknown
Elevation
Unknown
Doppler factor
Unknown
Orbital elements
Apogee altitude
153.925 km
Perigee altitude
145.83 km
Semi-major axis
6,528.014 km
Eccentricity
0.00062
Inclination
53.0137°
RAAN
151.0676°
Arg. of periapsis
263.2231°
True anomaly
96.88174°
Mean anomaly
96.8112°
Eccentric anomaly
96.84647°
Mean motion
4.11502 °/min
Orbital period
87.48 mins
BSTAR
0.00029275
Loading maneuver chart data...
Computing Atmospheric mass density...

Documentation

Showing up to 5 results
|